BM2MWA-13 Weather Reports


Display with metric or nautical units.
time (UTC)temp
F
wind
direction
speed
MPH
gust
MPH
rain 1hr
in
rain 24hr
in
rain mn
in
humidity
%
barometer
mb
20260505074704 70 130 6.0 10.0 0.04 1.18 0.81 95 1010.0
20260505073703 69 110 5.0 10.0 0.06 1.18 0.81 95 1009.9
20260505072703 69 110 3.0 10.0 0.14 1.18 0.81 95 1010.1
20260505071703 69 130 4.0 10.0 0.22 1.18 0.81 96 1010.3
20260505070704 69 130 4.0 13.0 0.22 1.16 0.79 96 1010.6
20260505065704 69 130 4.0 13.0 0.22 1.16 0.79 96 1010.6
20260505064704 69 130 3.0 13.0 0.20 1.14 0.77 95 1010.7
20260505063704 69 130 4.0 13.0 0.18 1.12 0.75 94 1010.6
20260505062703 69 110 4.0 13.0 0.10 1.04 0.67 93 1010.6
20260505061704 70 130 5.0 13.0 0.04 0.96 0.59 92 1010.7
20260505060704 70 100 5.0 18.0 0.02 0.94 0.57 92 1010.8
20260505055703 70 110 4.0 18.0 0.02 0.94 0.57 92 1010.8
20260505054704 70 100 4.0 18.0 0.02 0.94 0.57 91 1011.0
20260505053703 70 100 5.0 18.0 0.02 0.94 0.57 91 1011.0
20260505052704 70 120 5.0 18.0 0.02 0.94 0.57 91 1011.1
20260505051703 70 110 8.0 18.0 0.00 0.93 0.55 90 1011.1
20260505050703 70 100 7.0 17.0 0.00 0.93 0.55 90 1011.3
20260505041703 70 110 5.0 17.0 0.00 0.93 0.55 90 1011.8
20260505040706 70 100 6.0 15.0 0.00 0.93 0.55 91 1011.8
20260505035704 70 100 7.0 15.0 0.00 0.93 0.55 91 1011.7
20260505034703 70 100 7.0 15.0 0.04 0.93 0.55 91 1011.8
20260505033703 70 100 7.0 15.0 0.04 0.93 0.55 91 1011.8
20260505032704 69 110 5.0 15.0 0.04 0.93 0.55 93 1011.7
20260505031704 69 100 5.0 15.0 0.04 0.93 0.55 93 1011.9
20260505030703 69 110 5.0 15.0 0.04 0.93 0.55 93 1012.0
20260505025703 69 100 4.0 15.0 0.04 0.93 0.55 93 1012.2
20260505024704 69 100 5.0 15.0 0.04 0.91 0.53 92 1012.3
20260505023704 69 100 5.0 15.0 0.02 0.89 0.51 92 1012.3
20260505022704 69 100 6.0 15.0 0.04 0.89 0.51 92 1012.2
20260505021703 68 100 6.0 15.0 0.06 0.89 0.51 93 1012.2
20260505020704 68 100 5.0 14.0 0.08 0.89 0.51 94 1012.4
20260505015704 68 100 5.0 14.0 0.12 0.89 0.51 93 1012.6
20260505014703 68 90 5.0 14.0 0.16 0.87 0.49 93 1012.6
20260505013703 68 100 5.0 14.0 0.20 0.87 0.49 93 1012.7
20260505012703 68 100 6.0 14.0 0.18 0.85 0.47 93 1012.5
20260505011703 68 100 5.0 14.0 0.18 0.83 0.45 94 1012.4
20260505010704 68 110 4.0 15.0 0.18 0.81 0.43 93 1012.3
20260505005704 68 90 4.0 15.0 0.16 0.79 0.39 93 1012.5
20260505004703 68 100 5.0 15.0 0.12 0.73 0.33 93 1012.1
20260505003708 67 100 5.0 15.0 0.08 0.61 0.18 93 1012.2
20260505002704 67 70 3.0 15.0 0.10 0.69 0.30 93 1012.4
20260505001705 67 100 5.0 15.0 0.10 0.67 0.28 93 1012.0
20260505000704 67 100 5.0 12.0 0.08 0.65 0.26 93 1012.0
20260504235703 67 100 5.0 12.0 0.08 0.63 0.24 94 1011.9
20260504234703 67 100 6.0 12.0 0.06 0.63 0.22 93 1012.0
20260504233703 67 100 4.0 12.0 0.04 0.61 0.20 94 1012.0
20260504232704 67 120 4.0 12.0 0.06 0.61 0.20 93 1012.1
20260504231704 67 100 5.0 12.0 0.04 0.59 0.18 93 1011.9
20260504230704 67 110 4.0 15.0 0.08 0.61 0.18 92 1011.9
20260504225704 67 100 5.0 15.0 0.06 0.59 0.16 92 1011.8
20260504224703 67 100 4.0 15.0 0.06 0.61 0.16 93 1011.7
20260504223704 67 100 3.0 15.0 0.08 0.63 0.16 92 1011.5
20260504222705 67 100 5.0 15.0 0.08 0.67 0.14 92 1011.5
20260504221704 67 100 4.0 15.0 0.08 0.67 0.14 91 1011.3
20260504220704 66 70 5.0 17.0 0.04 0.67 0.10 93 1011.3
20260504215703 67 90 4.0 17.0 0.06 0.69 0.10 91 1011.2
20260504214704 67 100 5.0 17.0 0.06 0.69 0.10 91 1011.0
20260504213703 67 90 2.0 17.0 0.06 0.69 0.08 89 1011.0
20260504212703 67 100 4.0 17.0 0.04 0.67 0.06 89 1010.9
20260504211704 67 90 5.0 17.0 0.04 0.67 0.06 90 1010.7
20260504210703 67 100 5.0 20.0 0.04 0.67 0.06 89 1010.7
20260504205703 67 90 6.0 20.0 0.02 0.65 0.04 87 1010.7
20260504204703 67 100 6.0 20.0 0.02 0.65 0.04 85 1010.7
20260504203704 67 100 6.0 20.0 0.00 0.63 0.02 85 1010.7
20260504202703 67 100 7.0 20.0 0.00 0.63 0.02 84 1010.6
20260504201703 67 100 6.0 20.0 0.00 0.63 0.02 83 1010.6
20260504200704 67 100 6.0 21.0 0.00 0.63 0.02 83 1010.7
20260504195703 68 100 7.0 21.0 0.00 0.63 0.02 81 1010.7
20260504194703 68 100 7.0 21.0 0.00 0.63 0.02 81 1010.6
20260504193704 67 100 8.0 21.0 0.00 0.63 0.02 81 1010.7
20260504192704 67 90 7.0 21.0 0.00 0.63 0.02 81 1010.6
20260504191703 67 90 8.0 21.0 0.00 0.63 0.02 80 1010.7
20260504190703 67 100 8.0 21.0 0.00 0.63 0.02 81 1010.8
20260504185704 67 100 7.0 21.0 0.00 0.63 0.02 81 1011.0
20260504184703 67 100 8.0 21.0 0.00 0.63 0.02 82 1011.0
20260504183703 67 100 7.0 21.0 0.00 0.63 0.02 81 1011.0
20260504182703 67 100 7.0 21.0 0.00 0.63 0.02 82 1011.1
20260504181703 67 90 7.0 21.0 0.02 0.63 0.02 81 1011.3
20260504180703 67 100 8.0 19.0 0.02 0.63 0.02 81 1011.5
20260504175703 67 100 6.0 19.0 0.02 0.63 0.02 82 1011.7
20260504174704 66 100 7.0 19.0 0.02 0.63 0.02 82 1011.9
20260504173706 66 100 8.0 19.0 0.02 0.63 0.02 82 1011.9
20260504172703 67 100 8.0 19.0 0.02 0.63 0.02 80 1012.2
20260504171705 67 100 8.0 19.0 0.00 0.61 0.00 79 1012.3
20260504170703 67 100 9.0 21.0 0.00 0.61 0.00 80 1012.5
20260504150704 65 110 7.0 17.0 0.00 0.61 0.61 83 1014.7
20260504140703 64 110 6.0 16.0 0.00 0.61 0.61 87 1015.1
20260504130703 63 140 7.0 15.0 0.06 0.61 0.61 86 1015.4
20260504110703 63 140 9.0 21.0 0.16 0.41 0.41 79 1015.4
20260504081704 72 120 7.0 23.0 0.00 0.24 0.24 65 1013.2
20260504080703 72 120 9.0 25.0 0.00 0.24 0.24 66 1013.1